{"data":{"norad_id":61204,"epoch":"2026-09-21T02:51:19.198080Z","epoch_age_seconds":138700,"freshness":"FRESH","line1":"1 61204U 24171E   26264.11897220 -.00000842  00000+0 -20874-5 0  9999","line2":"2 61204  53.1581 292.8255 0001187  77.8171 282.2979 15.69706888115092","mean_motion":15.69706888,"eccentricity":0.0001187,"inclination_deg":53.1581,"raan_deg":292.8255,"arg_perigee_deg":77.8171,"mean_anomaly_deg":282.2979,"bstar":-2.0874e-6,"rev_number":11509,"period_min":91.736872087931,"perigee_km":358.93587030304,"apogee_km":360.53544127153,"semimajor_km":6737.8726557873,"source":"CELESTRAK","updated_at":"2026-09-22T09:00:49.339175Z"}}